[[{"header":{"parameterUnit":"m.s-1","parameterCategory":2,"la1":30.2991,"la2":30.254,"lo1":-89.0895,"lo2":-89.0444,"dy":0.0017,"dx":0.0017,"nx":28,"ny":28,"refTime":"2024-04-29T21:00:00:Z","depth":"0","parameterNumber":2,"parameterNumberName":"U-component_of_CURRENTS"},"data":[0,0,0,0,0,0,0,0,0,0,0,0,0,0,0,0,0,0,0,0,0,0,0,0,0,0,0,0,0,0,0,0,0,0,0,0,0,0,0,0,0,0,0,0,0,0,0,0,0,0,0,0,0,0,0,0,0,0,0.396,0.396,0,0.3963,0.3964,0.3964,0.3906,0.3904,0.3902,0.39,0.3893,0.3894,0.3896,0,0,0,0,0,0,0,0,0,0,0,0,0,0.3839,0.3842,0.396,0.396,0.3959,0.3963,0.3964,0.3964,0.3906,0.3904,0.3902,0.39,0.3892,0.3894,0.3896,0,0,0,0,0,0,0,0,0,0,0,0,0,0.3874,0.3843,0.396,0.3929,0.3926,0.3963,0.3964,0.3964,0.3907,0.3904,0.3901,0.3899,0.3892,0.3894,0.3896,0.3963,0,0,0.3903,0.3904,0,0,0,0,0,0,0,0,0.3872,0.3879,0.3934,0.3931,0.3928,0.3929,0.3918,0.3962,0.3907,0.3917,0.39,0.3897,0.3905,0.3906,0.3916,0.3963,0.3963,0.3903,0.3904,0.3905,0.3906,0,0,0,0,0,0,0,0.387,0.3878,0.3964,0.3934,0.3931,0.3893,0.3896,0.3926,0.3927,0.3916,0.3911,0.3908,0.3903,0.3914,0.3915,0.3963,0.3903,0.3905,0.3906,0.3907,0.4063,0.4065,0,0,0,0,0,0,0.3872,0.3877,0.3963,0.3963,0.389,0.3898,0.3901,0.3934,0.3927,0.3923,0.3911,0.3906,0.3911,0.3912,0.3914,0.3987,0.3905,0.3907,0.3909,0.406,0.4063,0.4066,0,0,0,0,0,0,0.387,0.3881,0.3963,0.3915,0.3923,0.3903,0.394,0.3935,0.395,0.3923,0.3918,0.3929,0.3909,0.3911,0.3954,0.3986,0.3908,0.391,0.4057,0.4061,0.4065,0.4136,0,0,0,0,0,0,0.3867,0.3882,0.3921,0.3917,0.3926,0.4007,0.3942,0.3937,0.3951,0.3944,0.3938,0.3934,0.3907,0.3951,0.3956,0.3987,0.3912,0.4053,0.4059,0.4063,0.413,0.4142,0.4152,0,0,0,0,0,0.3864,0.3928,0.3924,0.3934,0.3977,0.4009,0.4012,0.3987,0.3954,0.3986,0.3972,0.3934,0.3987,0.3956,0.3961,0.3993,0.405,0.4057,0.4063,0.4125,0.414,0.4152,0,0,0,0,0,0,0.3902,0.3929,0.3922,0.3995,0.4008,0.3999,0.4027,0.4007,0.4024,0.4011,0.3978,0.3976,0.4026,0.4015,0.3981,0.4057,0.4011,0.4019,0.4057,0.407,0.4081,0.4057,0.3914,0,0,0,0,0,0.393,0.3975,0.3992,0.4044,0.4063,0.405,0.4062,0.4044,0.4047,0.405,0.4043,0.4042,0.4061,0.4067,0.4086,0.4137,0.4078,0.4161,0.4172,0.4182,0.4169,0.4086,0.4086,0.4087,0.4087,0.4087,0,0,0.3948,0.3973,0.3994,0.4053,0.4061,0.4096,0.4052,0.408,0.4101,0.4051,0.4093,0.4092,0.4088,0.4135,0.4155,0.4123,0.4164,0.419,0.4197,0.4179,0.4092,0.4091,0.409,0.4091,0.4091,0.409,0,0,0.3997,0.4045,0.4092,0.4119,0.4144,0.4142,0.4157,0.4167,0.4173,0.4216,0.4181,0.4192,0.4235,0.422,0.4221,0.4313,0.4233,0.4333,0.4358,0.4279,0.4276,0.4273,0.424,0.4233,0.4328,0.4328,0.4328,0,0.4023,0.4075,0.411,0.4161,0.4168,0.4168,0.4199,0.4231,0.4246,0.4247,0.424,0.4263,0.4267,0.4286,0.4318,0.4333,0.4284,0.4301,0.4287,0.4282,0.4277,0.4244,0.4235,0.4333,0.4332,0.4332,0.4331,0,0.4083,0.4134,0.4169,0.4223,0.4255,0.4281,0.4314,0.4345,0.4343,0.4342,0.4373,0.4375,0.4363,0.439,0.4384,0.4373,0.4352,0.4312,0.4237,0.428,0.4245,0.4234,0.4339,0.4337,0.4336,0.4335,0,0,0.4096,0.419,0.4195,0.4204,0.4275,0.4285,0.4358,0.4386,0.4387,0.4429,0.4413,0.4473,0.4442,0.4442,0.4433,0.4384,0.4339,0.434,0.4334,0.4282,0.4187,0.4221,0.4212,0.4278,0.4276,0.4274,0.4189,0,0.4115,0.419,0.4236,0.4273,0.4302,0.4332,0.4382,0.4412,0.4434,0.4436,0.4444,0.4443,0.4476,0.445,0.4419,0.4346,0.4308,0.4368,0.4175,0.417,0.4171,0.4199,0.4114,0.4034,0.4178,0.4176,0.4174,0,0.4118,0.4173,0.4219,0.4256,0.427,0.4295,0.4312,0.4357,0.4397,0.4412,0.4422,0.4421,0.4405,0.4396,0.4306,0.4336,0.4275,0.4223,0.4216,0.4205,0.4182,0.4009,0.4008,0.3949,0.4157,0.4159,0.416,0,0.4032,0.4124,0.4141,0.4162,0.4243,0.4249,0.4275,0.433,0.4349,0.4374,0.436,0.4365,0.432,0.4263,0.4232,0.4234,0.4106,0.4079,0.4064,0.4067,0.3935,0.3931,0.3823,0.3988,0.3988,0.3989,0.3989,0,0.3994,0.3997,0.4095,0.4105,0.4103,0.4179,0.4169,0.4214,0.4257,0.4235,0.4319,0.4285,0.427,0.4227,0.4198,0.4124,0.4079,0.4069,0.4037,0.397,0.397,0.3865,0.3836,0.3985,0.3986,0.3987,0.3987,0,0.3874,0.3947,0.3961,0.4047,0.4059,0.4049,0.4096,0.4083,0.416,0.4125,0.4125,0.418,0.414,0.4167,0.406,0.4058,0.3894,0.3978,0.3946,0.3913,0.3853,0.3833,0.3509,0.3402,0.3923,0.3923,0.3923,0,0.3814,0.3816,0.3886,0.3872,0.3901,0.3912,0.3902,0.4007,0.3991,0.4042,0.3987,0.401,0.4,0.3963,0.3972,0.3961,0.3849,0.3859,0.3854,0.3843,0.3794,0.3631,0.3552,0.3717,0.3715,0.3714,0.3713,0,0.3697,0.3715,0.3735,0.3705,0.3692,0.3677,0.3674,0.3664,0.3744,0.3762,0.3731,0.3752,0.3815,0.3794,0.3872,0.3852,0.3709,0.3834,0.3778,0.3599,0.3445,0.3331,0.3827,0.3701,0.3703,0.3703,0.3704,0.3705,0.3574,0.3539,0.3534,0.3469,0.3464,0.3377,0.3309,0.3337,0.3314,0.3301,0.3439,0.3461,0.3632,0.3751,0.371,0.368,0.3613,0.3604,0.3575,0.3407,0.3308,0.3835,0.3711,0.3712,0.3713,0.3714,0.3715,0,0.3359,0.3319,0.3274,0.3183,0.3079,0.3147,0.3086,0.3011,0.2932,0.3051,0.3081,0.3267,0.3339,0.3461,0.3562,0.3463,0.326,0.3368,0.3101,0.3032,0.3462,0.3467,0.3338,0.3338,0.3338,0.3338,0.3338,0.3338,0.3237,0.3104,0.3057,0.2799,0.2741,0.2573,0.2511,0.2485,0.2543,0.2593,0.2718,0.2887,0.3216,0.3394,0.3363,0.3277,0.3018,0.2881,0.2835,0.3183,0.3202,0.322,0.3218,0.3038,0.3038,0.2286,0.228,0.2276]},{"header":{"parameterUnit":"m.s-1","parameterCategory":2,"la1":30.2991,"la2":30.254,"lo1":-89.0895,"lo2":-89.0444,"dy":0.0017,"dx":0.0017,"nx":28,"ny":28,"refTime":"2024-04-29T21:00:00:Z","depth":"0","parameterNumber":3,"parameterNumberName":"V-component_of_CURRENTS"},"data":[0,0,0,0,0,0,0,0,0,0,0,0,0,0,0,0,0,0,0,0,0,0,0,0,0,0,0,0,0,0,0,0,0,0,0,0,0,0,0,0,0,0,0,0,0,0,0,0,0,0,0,0,0,0,0,0,0,0,0.0319,0.0319,0,0.0319,0.0319,0.0319,0.0305,0.0305,0.0304,0.0304,0.0252,0.0251,0.025,0,0,0,0,0,0,0,0,0,0,0,0,0,0.0251,0.0252,0.0319,0.0319,0.0319,0.0319,0.0319,0.0319,0.0305,0.0305,0.0304,0.0304,0.0253,0.0251,0.025,0,0,0,0,0,0,0,0,0,0,0,0,0,0.027,0.0253,0.0319,0.0311,0.031,0.0319,0.0319,0.0319,0.0306,0.0305,0.0304,0.0303,0.0253,0.0252,0.025,0.0256,0,0,0.0246,0.0245,0,0,0,0,0,0,0,0,0.0269,0.0272,0.0312,0.0311,0.0311,0.031,0.0276,0.0295,0.0306,0.0309,0.0304,0.0303,0.0267,0.0264,0.0268,0.0253,0.0251,0.0246,0.0245,0.0244,0.0244,0,0,0,0,0,0,0,0.0268,0.0272,0.032,0.0312,0.0311,0.0288,0.0291,0.028,0.0291,0.0308,0.0307,0.0305,0.0266,0.027,0.0267,0.025,0.0246,0.0245,0.0244,0.0243,0.0223,0.0223,0,0,0,0,0,0,0.0269,0.0271,0.032,0.032,0.0286,0.029,0.0293,0.0312,0.0293,0.0289,0.0306,0.0305,0.0272,0.0268,0.0265,0.0273,0.0244,0.0243,0.0242,0.0223,0.0223,0.0223,0,0,0,0,0,0,0.0268,0.0275,0.032,0.0293,0.0297,0.0292,0.0314,0.0312,0.0319,0.0291,0.0287,0.0313,0.0272,0.0267,0.0264,0.027,0.0242,0.0241,0.0222,0.0223,0.0223,0.0287,0,0,0,0,0,0,0.0267,0.0275,0.029,0.0294,0.0299,0.034,0.0314,0.0313,0.0318,0.0317,0.0296,0.0291,0.0271,0.0266,0.0263,0.0268,0.024,0.0222,0.0223,0.0223,0.0284,0.0289,0.0294,0,0,0,0,0,0.0265,0.0304,0.0292,0.0297,0.0321,0.0341,0.0343,0.0336,0.0319,0.0336,0.0316,0.0291,0.0267,0.0266,0.0262,0.0266,0.0222,0.0222,0.0223,0.0282,0.0288,0.0293,0,0,0,0,0,0,0.0286,0.0306,0.0293,0.0336,0.0338,0.0339,0.0354,0.0342,0.0341,0.0336,0.0304,0.0298,0.0295,0.0274,0.0274,0.026,0.0237,0.0237,0.0283,0.0289,0.0293,0.0311,0.0239,0,0,0,0,0,0.0295,0.0329,0.0331,0.0363,0.0366,0.0356,0.0362,0.0357,0.0354,0.0353,0.0333,0.031,0.0295,0.0287,0.0271,0.0272,0.0228,0.0268,0.0273,0.0277,0.0287,0.0219,0.0219,0.0226,0.0226,0.0226,0,0,0.0306,0.0325,0.0339,0.0368,0.0367,0.0385,0.036,0.0379,0.0389,0.0347,0.0355,0.0329,0.0298,0.0297,0.0293,0.0281,0.0252,0.0278,0.0282,0.029,0.022,0.0219,0.0218,0.0226,0.0226,0.0226,0,0,0.0352,0.0366,0.0404,0.041,0.0419,0.0415,0.0421,0.0421,0.0419,0.0422,0.039,0.0372,0.035,0.0332,0.0318,0.0339,0.0279,0.0327,0.0367,0.0301,0.03,0.0298,0.0242,0.0235,0.0329,0.033,0.033,0,0.0362,0.0411,0.0415,0.0447,0.0454,0.043,0.0458,0.0457,0.0453,0.0457,0.0431,0.0397,0.0366,0.0366,0.0368,0.035,0.0303,0.035,0.0307,0.0304,0.0302,0.0244,0.0236,0.0333,0.0332,0.0332,0.0332,0,0.043,0.0458,0.0483,0.0511,0.0521,0.0545,0.0536,0.0542,0.0523,0.0516,0.051,0.0467,0.0448,0.0428,0.0403,0.0378,0.0348,0.032,0.0294,0.0305,0.0244,0.0234,0.0337,0.0336,0.0335,0.0334,0,0,0.0488,0.0522,0.0531,0.0546,0.0556,0.0578,0.0591,0.0606,0.0629,0.0595,0.0614,0.0566,0.0538,0.0521,0.0481,0.0423,0.0355,0.0367,0.0362,0.0316,0.021,0.0221,0.0211,0.0313,0.0311,0.031,0.0175,0,0.0537,0.0601,0.0606,0.0654,0.068,0.0662,0.0685,0.069,0.0685,0.0697,0.0642,0.0642,0.0576,0.0568,0.05,0.04,0.0331,0.0395,0.0204,0.0199,0.021,0.0201,0.0238,0.0124,0.0165,0.0163,0.0162,0,0.0603,0.064,0.0692,0.0728,0.074,0.0761,0.0796,0.0819,0.0822,0.0817,0.0794,0.0751,0.0685,0.0618,0.0439,0.0479,0.0351,0.0258,0.025,0.0234,0.0192,0.0119,0.0103,-0.006,0.0146,0.0147,0.0148,0,0.0645,0.0701,0.0744,0.0755,0.079,0.0812,0.0836,0.0855,0.0899,0.0897,0.0914,0.0827,0.0788,0.0619,0.0435,0.0422,0.0229,0.0184,0.0073,0.0072,0.0055,0.0056,-0.0135,0.0041,0.0041,0.0041,0.0042,0,0.0697,0.0735,0.0768,0.0792,0.0867,0.0868,0.0949,0.0962,0.1,0.1062,0.0983,0.0996,0.078,0.0652,0.0463,0.0252,0.0241,0.0081,0.0038,0.008,0.0084,-0.0097,-0.0179,0.0036,0.0038,0.0038,0.0039,0,0.0731,0.0747,0.0809,0.0858,0.0886,0.0942,0.1035,0.1097,0.1112,0.1185,0.1185,0.1107,0.0943,0.0731,0.0463,0.0301,0.0001,0.0014,0.009,0.0059,-0.0188,-0.0267,-0.0498,-0.0568,-0.0138,-0.0139,-0.0139,0,0.0751,0.0781,0.0864,0.092,0.0946,0.1034,0.1105,0.1155,0.1224,0.1256,0.1293,0.1173,0.112,0.076,0.0452,0.0141,-0.0027,-0.0037,-0.0055,-0.0195,-0.0316,-0.038,-0.0427,-0.0064,-0.0064,-0.0064,-0.0063,0,0.0793,0.0818,0.0874,0.0987,0.1069,0.1173,0.1268,0.1339,0.1397,0.1447,0.1475,0.1436,0.1131,0.0853,0.0455,0.0231,-0.0126,-0.0043,-0.0223,-0.0295,-0.0345,-0.0433,0.002,-0.0062,-0.0062,-0.0062,-0.0062,-0.0062,0.0831,0.0882,0.0958,0.1063,0.1166,0.128,0.1363,0.1468,0.1577,0.1661,0.1618,0.1612,0.1236,0.071,0.039,-0.0129,-0.0149,-0.029,-0.0382,-0.0441,-0.0482,-0.0008,-0.011,-0.011,-0.011,-0.0111,-0.0111,0,0.0882,0.0936,0.1032,0.1149,0.125,0.13,0.1451,0.1538,0.1662,0.1779,0.1816,0.1669,0.119,0.0697,0.0006,-0.0386,-0.0535,-0.0604,-0.0704,-0.0743,-0.0358,-0.0325,-0.0433,-0.0433,-0.0433,-0.0433,-0.0433,-0.0433,0.0912,0.0998,0.1036,0.1187,0.127,0.1404,0.1485,0.1628,0.1752,0.1898,0.1951,0.1972,0.1646,0.0365,-0.0511,-0.0728,-0.0989,-0.1051,-0.1201,-0.0949,-0.0927,-0.0906,-0.0896,-0.1123,-0.1124,-0.1527,-0.1531,-0.1534]}],[{"header":{"parameterUnit":"m.s-1","parameterCategory":2,"la1":30.2991,"la2":30.254,"lo1":-89.0895,"lo2":-89.0444,"dy":0.0017,"dx":0.0017,"nx":28,"ny":28,"refTime":"2024-04-29T21:00:00:Z","depth":"2","parameterNumber":2,"parameterNumberName":"U-component_of_CURRENTS"},"data":[0,0,0,0,0,0,0,0,0,0,0,0,0,0,0,0,0,0,0,0,0,0,0,0,0,0,0,0,0,0,0,0,0,0,0,0,0,0,0,0,0,0,0,0,0,0,0,0,0,0,0,0,0,0,0,0,0,0,0.3083,0.3084,0,0.3146,0.3146,0.3147,0.3128,0.3127,0.3126,0.3126,0.3103,0.3103,0.3103,0,0,0,0,0,0,0,0,0,0,0,0,0,0.2985,0.2987,0.3082,0.3084,0.3085,0.3146,0.3146,0.3147,0.3128,0.3127,0.3126,0.3125,0.3103,0.3103,0.3103,0,0,0,0,0,0,0,0,0,0,0,0,0,0.3032,0.2987,0.3082,0.3086,0.3088,0.3146,0.3146,0.3147,0.3129,0.3127,0.3126,0.3125,0.3103,0.3103,0.3103,0.3133,0,0,0.3104,0.3105,0,0,0,0,0,0,0,0,0.3029,0.3035,0.3085,0.3086,0.3088,0.3132,0.3104,0.3139,0.3129,0.3108,0.3126,0.3124,0.3108,0.3108,0.3118,0.3132,0.3131,0.3104,0.3105,0.3105,0.3105,0,0,0,0,0,0,0,0.3026,0.3032,0.3103,0.3086,0.3088,0.3099,0.3103,0.3111,0.311,0.311,0.311,0.3125,0.3108,0.3118,0.3117,0.313,0.3104,0.3105,0.3105,0.3105,0.3179,0.318,0,0,0,0,0,0,0.3027,0.3029,0.3101,0.3105,0.306,0.3102,0.3107,0.3115,0.3112,0.3112,0.3126,0.3124,0.3118,0.3117,0.3116,0.3188,0.3105,0.3105,0.3105,0.3177,0.3179,0.3181,0,0,0,0,0,0,0.3024,0.3032,0.3099,0.3072,0.3082,0.3105,0.3115,0.3117,0.3145,0.3126,0.3123,0.3153,0.3117,0.3116,0.3138,0.3186,0.3105,0.3106,0.3175,0.3178,0.318,0.3308,0,0,0,0,0,0,0.3021,0.3031,0.3043,0.3072,0.3084,0.3144,0.3117,0.312,0.3157,0.3155,0.3148,0.3143,0.3116,0.3138,0.3139,0.3185,0.3106,0.3173,0.3176,0.3179,0.3302,0.3315,0.3326,0,0,0,0,0,0.3017,0.3042,0.3043,0.3053,0.3098,0.3146,0.3153,0.3161,0.316,0.3179,0.3175,0.3145,0.3159,0.314,0.314,0.3188,0.3171,0.3175,0.3179,0.3296,0.3312,0.3326,0,0,0,0,0,0,0.3009,0.3044,0.3045,0.3079,0.3115,0.3144,0.3172,0.3182,0.3199,0.3199,0.3172,0.3169,0.32,0.3179,0.3159,0.3216,0.3159,0.3163,0.3248,0.3262,0.3274,0.326,0.3106,0,0,0,0,0,0.3014,0.3047,0.3075,0.3111,0.3126,0.3155,0.318,0.3191,0.321,0.3217,0.3213,0.321,0.3217,0.3227,0.3219,0.3264,0.3224,0.3291,0.3303,0.3314,0.3301,0.3283,0.3293,0.3194,0.3194,0.3194,0,0,0.3032,0.3052,0.3075,0.3114,0.314,0.3174,0.3166,0.3216,0.3248,0.3212,0.3253,0.325,0.3235,0.3273,0.3286,0.3265,0.3328,0.3319,0.3328,0.3309,0.3288,0.3298,0.3306,0.3197,0.3196,0.3196,0,0,0.307,0.3092,0.312,0.3154,0.3199,0.3213,0.3234,0.3272,0.3289,0.3335,0.3314,0.3342,0.3356,0.3359,0.3361,0.3439,0.3385,0.3443,0.3507,0.3492,0.3499,0.3505,0.3497,0.3501,0.346,0.346,0.346,0,0.3073,0.3108,0.3141,0.3174,0.3199,0.3232,0.3261,0.33,0.3344,0.3358,0.3356,0.3385,0.3395,0.343,0.3471,0.3468,0.3444,0.3458,0.3507,0.3512,0.3516,0.3506,0.3509,0.3467,0.3466,0.3465,0.3465,0,0.3136,0.3156,0.3183,0.3223,0.3262,0.33,0.3346,0.3384,0.3409,0.3436,0.3476,0.3491,0.3504,0.3531,0.3536,0.3581,0.3551,0.3518,0.3471,0.3534,0.3519,0.352,0.3476,0.3474,0.3472,0.347,0,0,0.3127,0.3198,0.3205,0.3213,0.3282,0.3312,0.3378,0.3421,0.3458,0.3506,0.3535,0.3597,0.3608,0.361,0.3622,0.3634,0.3686,0.3609,0.3605,0.3602,0.3656,0.3645,0.3644,0.366,0.366,0.3661,0.3646,0,0.314,0.3179,0.3228,0.3273,0.3281,0.3341,0.3397,0.3458,0.3503,0.3548,0.3579,0.3616,0.3639,0.3662,0.3684,0.3673,0.3688,0.3693,0.3592,0.3589,0.3572,0.3644,0.3401,0.3368,0.3646,0.3646,0.3646,0,0.3154,0.3172,0.3199,0.3252,0.3268,0.3318,0.3385,0.3443,0.3528,0.3567,0.3615,0.3641,0.3699,0.3691,0.3707,0.3708,0.37,0.3684,0.3682,0.3617,0.3579,0.3342,0.3357,0.3646,0.3646,0.3646,0.3646,0,0.3079,0.3141,0.3146,0.3173,0.3255,0.3291,0.3344,0.3441,0.3488,0.3575,0.3609,0.3666,0.369,0.3689,0.372,0.3709,0.3705,0.3675,0.3646,0.3645,0.3389,0.3365,0.3663,0.3663,0.3663,0.3663,0.3663,0,0.3034,0.3041,0.3116,0.3124,0.3163,0.3245,0.3303,0.3377,0.347,0.351,0.3611,0.3638,0.3689,0.371,0.3715,0.3702,0.3705,0.3664,0.3643,0.3432,0.3414,0.3601,0.3594,0.3662,0.3662,0.3662,0.3663,0,0.2937,0.2984,0.2997,0.3084,0.3121,0.315,0.3276,0.3306,0.3422,0.347,0.3499,0.3617,0.3657,0.3703,0.3704,0.3691,0.3677,0.3663,0.3433,0.3387,0.3624,0.3624,0.3619,0.3618,0.3618,0.3617,0.3617,0,0.2884,0.2879,0.2956,0.2973,0.3014,0.3081,0.3119,0.3258,0.3289,0.3438,0.3431,0.3537,0.3576,0.3617,0.3621,0.3626,0.3668,0.3387,0.3332,0.364,0.3621,0.3621,0.3622,0.3043,0.3038,0.3034,0.3031,0,0.279,0.2821,0.284,0.2861,0.29,0.2937,0.3005,0.303,0.3164,0.3232,0.3293,0.3352,0.3448,0.337,0.343,0.3393,0.3377,0.3308,0.3651,0.3121,0.3104,0.3084,0.3101,0.2994,0.2998,0.3001,0.3003,0.3004,0.2711,0.2705,0.2723,0.2735,0.2771,0.2756,0.2745,0.2817,0.2862,0.2921,0.3068,0.3082,0.3158,0.3139,0.3056,0.3013,0.3239,0.3088,0.3096,0.311,0.3075,0.3062,0.2937,0.294,0.2943,0.2946,0.2948,0,0.2573,0.2577,0.2591,0.2579,0.2545,0.2616,0.2626,0.2587,0.2577,0.269,0.2752,0.2605,0.2604,0.2666,0.2571,0.2605,0.2532,0.2481,0.2357,0.2399,0.2435,0.236,0.2035,0.2031,0.2027,0.2024,0,0,0.2497,0.2439,0.2443,0.2345,0.2344,0.2255,0.2229,0.2215,0.2261,0.2244,0.2264,0.2482,0.2611,0.2279,0.2269,0.2125,0.2222,0.2042,0.2791,0.2688,0.2717,0.2824,0.2764,0,0,0,0,0]},{"header":{"parameterUnit":"m.s-1","parameterCategory":2,"la1":30.2991,"la2":30.254,"lo1":-89.0895,"lo2":-89.0444,"dy":0.0017,"dx":0.0017,"nx":28,"ny":28,"refTime":"2024-04-29T21:00:00:Z","depth":"2","parameterNumber":3,"parameterNumberName":"V-component_of_CURRENTS"},"data":[0,0,0,0,0,0,0,0,0,0,0,0,0,0,0,0,0,0,0,0,0,0,0,0,0,0,0,0,0,0,0,0,0,0,0,0,0,0,0,0,0,0,0,0,0,0,0,0,0,0,0,0,0,0,0,0,0,0,0.0109,0.0109,0,0.0105,0.0105,0.0105,0.0083,0.0083,0.0083,0.0082,0.0036,0.0035,0.0034,0,0,0,0,0,0,0,0,0,0,0,0,0,0.005,0.0052,0.0109,0.0109,0.0109,0.0105,0.0105,0.0105,0.0084,0.0083,0.0083,0.0082,0.0036,0.0035,0.0034,0,0,0,0,0,0,0,0,0,0,0,0,0,0.0062,0.0052,0.0109,0.0099,0.0098,0.0105,0.0105,0.0104,0.0084,0.0083,0.0083,0.0082,0.0036,0.0035,0.0034,0.0035,0,0,0.0029,0.0029,0,0,0,0,0,0,0,0,0.0062,0.0064,0.01,0.01,0.0099,0.0096,0.0067,0.008,0.0084,0.0087,0.0082,0.0082,0.0053,0.0051,0.0049,0.0033,0.0031,0.0029,0.0028,0.0028,0.0028,0,0,0,0,0,0,0,0.0061,0.0064,0.0105,0.0101,0.01,0.0079,0.0081,0.0069,0.0071,0.0087,0.0086,0.0089,0.0052,0.0051,0.0048,0.0031,0.0029,0.0028,0.0027,0.0027,0.0008,0.0008,0,0,0,0,0,0,0.0069,0.0064,0.0105,0.0105,0.0081,0.0081,0.0082,0.0096,0.0072,0.0069,0.0089,0.0088,0.0053,0.0049,0.0046,0.0059,0.0028,0.0027,0.0026,0.0007,0.0008,0.0008,0,0,0,0,0,0,0.0067,0.0073,0.0106,0.0085,0.0088,0.0083,0.0098,0.0096,0.0096,0.0074,0.007,0.0091,0.0053,0.0048,0.0045,0.0056,0.0026,0.0025,0.0007,0.0007,0.0008,0.0077,0,0,0,0,0,0,0.0066,0.0073,0.0084,0.0086,0.009,0.0119,0.0099,0.0096,0.0099,0.0097,0.0075,0.007,0.0052,0.0047,0.0043,0.0054,0.0024,0.0006,0.0007,0.0008,0.0074,0.008,0.0084,0,0,0,0,0,0.0064,0.0093,0.0084,0.0089,0.0106,0.012,0.012,0.0112,0.01,0.0109,0.0093,0.0071,0.0048,0.0047,0.0042,0.0053,0.0006,0.0007,0.0008,0.0072,0.0079,0.0084,0,0,0,0,0,0,0.0078,0.0093,0.0084,0.0117,0.0118,0.0117,0.0128,0.0117,0.0112,0.011,0.0081,0.0076,0.0075,0.0054,0.0053,0.0047,0.0021,0.0021,0.0071,0.0077,0.0082,0.01,0.0022,0,0,0,0,0,0.0085,0.0111,0.0111,0.0138,0.0139,0.0131,0.0135,0.0131,0.0127,0.0124,0.0105,0.0086,0.0074,0.0069,0.0053,0.0056,0.0015,0.0056,0.0061,0.0066,0.0076,0.0013,0.0014,0.001,0.001,0.001,0,0,0.0097,0.0112,0.0123,0.0142,0.0142,0.0161,0.0132,0.0148,0.0165,0.012,0.0132,0.0104,0.0078,0.008,0.0077,0.0065,0.0046,0.0067,0.0071,0.0079,0.0014,0.0014,0.0015,0.0011,0.0011,0.0011,0,0,0.0144,0.0146,0.018,0.0185,0.0194,0.019,0.0195,0.0192,0.019,0.0195,0.0166,0.0147,0.013,0.0114,0.0104,0.0126,0.0074,0.0119,0.0162,0.0102,0.0101,0.0101,0.0054,0.0049,0.0123,0.0123,0.0123,0,0.0156,0.0201,0.0191,0.0222,0.0234,0.0206,0.0239,0.0235,0.0231,0.0232,0.0208,0.0173,0.0147,0.0149,0.0157,0.0139,0.0099,0.0144,0.0109,0.0107,0.0105,0.0057,0.005,0.0126,0.0126,0.0125,0.0125,0,0.0228,0.0255,0.0276,0.0306,0.0314,0.034,0.033,0.0332,0.0315,0.0304,0.0294,0.0249,0.0229,0.0212,0.0195,0.0177,0.0152,0.0121,0.0095,0.011,0.0058,0.005,0.0131,0.013,0.0129,0.0128,0,0,0.0288,0.0319,0.0328,0.035,0.0361,0.0381,0.0399,0.0411,0.0428,0.0391,0.0402,0.0363,0.0325,0.0311,0.0272,0.0222,0.0172,0.0175,0.017,0.0134,0.0045,0.0044,0.0034,0.013,0.0129,0.0128,0.0017,0,0.0348,0.0418,0.0418,0.0478,0.0509,0.0487,0.051,0.0512,0.0495,0.0493,0.0432,0.0424,0.0368,0.0357,0.0298,0.0208,0.0152,0.0206,0.0032,0.0028,0.0029,0.0025,0.0061,-0.0034,0.0008,0.0007,0.0006,0,0.0423,0.0463,0.0526,0.0566,0.0577,0.0602,0.0628,0.0649,0.0629,0.0614,0.0578,0.0527,0.0468,0.0405,0.025,0.0286,0.0177,0.0092,0.0085,0.0056,0.0011,-0.0044,-0.0052,-0.0009,-0.0008,-0.0007,-0.0006,0,0.0476,0.054,0.0592,0.0606,0.0642,0.0664,0.0683,0.0684,0.0713,0.0689,0.0691,0.0604,0.0564,0.0415,0.0254,0.0245,0.007,0.0028,-0.0078,-0.008,-0.0096,-0.0096,-0.0096,-0.0096,-0.0096,-0.0096,-0.0095,0,0.0542,0.0586,0.062,0.0649,0.0726,0.0725,0.0789,0.0794,0.0803,0.0843,0.0759,0.0757,0.056,0.0443,0.0278,0.0088,0.0082,-0.0067,-0.011,-0.007,-0.0066,-0.0082,-0.0079,-0.01,-0.0099,-0.0098,-0.0097,0,0.0585,0.0603,0.0671,0.0723,0.0749,0.0801,0.0867,0.0908,0.0908,0.0951,0.0948,0.0862,0.0715,0.0516,0.0279,0.0131,-0.0059,-0.013,-0.0058,-0.0089,-0.0178,-0.017,-0.0267,-0.0268,-0.0269,-0.027,-0.027,0,0.061,0.0647,0.0727,0.0774,0.0799,0.0875,0.0928,0.096,0.1005,0.102,0.1042,0.0929,0.0869,0.0537,0.0258,-0.0023,-0.0067,-0.0183,-0.0199,-0.0165,-0.0196,-0.0187,-0.0178,-0.0199,-0.0199,-0.0199,-0.0199,0,0.066,0.068,0.0735,0.083,0.0896,0.0983,0.1057,0.1112,0.115,0.1185,0.1203,0.1161,0.0875,0.0611,0.0242,0.005,-0.0132,-0.0191,-0.0191,-0.0148,-0.0106,-0.0135,-0.0128,-0.0199,-0.0199,-0.0199,-0.0199,-0.0199,0.0692,0.0735,0.0796,0.0888,0.0972,0.1066,0.1137,0.1217,0.1305,0.1367,0.1323,0.1275,0.0987,0.0528,0.0203,-0.0137,-0.0127,-0.0252,-0.0251,-0.0249,-0.0208,-0.0169,-0.0265,-0.0265,-0.0266,-0.0266,-0.0266,0,0.0727,0.0769,0.0849,0.095,0.1034,0.1079,0.1206,0.1274,0.1383,0.1457,0.148,0.1207,0.0921,0.0583,0.0092,-0.0203,-0.023,-0.0305,-0.0268,-0.0266,-0.0264,-0.0223,-0.0285,-0.0286,-0.0287,-0.0288,0,0,0.0741,0.0805,0.0839,0.0972,0.1049,0.1165,0.1239,0.1357,0.1445,0.1512,0.1505,0.1457,0.1049,0.0689,0.0287,0.0005,-0.0065,-0.0057,-0.0007,0.0087,0.0092,-0.0197,-0.0126,0,0,0,0,0]}],[{"header":{"parameterUnit":"m.s-1","parameterCategory":2,"la1":30.2991,"la2":30.254,"lo1":-89.0895,"lo2":-89.0444,"dy":0.0017,"dx":0.0017,"nx":28,"ny":28,"refTime":"2024-04-29T21:00:00:Z","depth":"4","parameterNumber":2,"parameterNumberName":"U-component_of_CURRENTS"},"data":[0,0,0,0,0,0,0,0,0,0,0,0,0,0,0,0,0,0,0,0,0,0,0,0,0,0,0,0,0,0,0,0,0,0,0,0,0,0,0,0,0,0,0,0,0,0,0,0,0,0,0,0,0,0,0,0,0,0,0.167,0.1672,0,0.178,0.1781,0.1782,0.1849,0.185,0.1851,0.1852,0.1964,0.1967,0.1969,0,0,0,0,0,0,0,0,0,0,0,0,0,0.1541,0.1542,0.167,0.1672,0.1674,0.178,0.1781,0.1782,0.1849,0.185,0.1851,0.1852,0.1964,0.1966,0.1969,0,0,0,0,0,0,0,0,0,0,0,0,0,0.1614,0.1543,0.167,0.1724,0.173,0.178,0.1781,0.1782,0.1849,0.185,0.1851,0.1852,0.1963,0.1966,0.1969,0.1966,0,0,0.198,0.1981,0,0,0,0,0,0,0,0,0.1609,0.1618,0.1714,0.172,0.1727,0.1807,0.1778,0.1846,0.1848,0.1798,0.1852,0.1853,0.1914,0.1922,0.1932,0.1971,0.1976,0.198,0.1982,0.1984,0.1984,0,0,0,0,0,0,0,0.1604,0.1613,0.1708,0.1716,0.1724,0.1751,0.1762,0.179,0.1844,0.1803,0.1809,0.1829,0.1917,0.1929,0.1936,0.1978,0.198,0.1983,0.1985,0.1986,0.2145,0.2147,0,0,0,0,0,0,0.1599,0.1608,0.1705,0.1712,0.1676,0.1752,0.1764,0.1776,0.1844,0.1857,0.1828,0.1832,0.1923,0.1932,0.194,0.2055,0.1983,0.1987,0.1989,0.2143,0.2145,0.2147,0,0,0,0,0,0,0.1595,0.1606,0.1701,0.1667,0.1682,0.1754,0.1766,0.1777,0.1835,0.1864,0.1877,0.188,0.1924,0.1935,0.2003,0.2055,0.1988,0.1991,0.214,0.2143,0.2146,0.2211,0,0,0,0,0,0,0.1591,0.1603,0.1622,0.1667,0.1684,0.1762,0.1766,0.1779,0.1845,0.1853,0.1912,0.1921,0.1926,0.1998,0.2006,0.2059,0.1994,0.2137,0.2141,0.2145,0.2206,0.2216,0.2224,0,0,0,0,0,0.1585,0.1611,0.1622,0.1635,0.1703,0.1764,0.1776,0.1826,0.1847,0.1881,0.1919,0.1921,0.203,0.2002,0.2011,0.2066,0.2135,0.214,0.2145,0.2202,0.2214,0.2224,0,0,0,0,0,0,0.1571,0.1622,0.1635,0.1676,0.1729,0.1778,0.182,0.1851,0.1907,0.1922,0.1944,0.1956,0.2034,0.2042,0.201,0.2124,0.2085,0.2092,0.2125,0.2137,0.2146,0.2145,0.1997,0,0,0,0,0,0.1573,0.1607,0.1656,0.1696,0.1722,0.1776,0.1813,0.1848,0.1898,0.1927,0.1965,0.2009,0.2054,0.2089,0.212,0.2183,0.2186,0.2227,0.2236,0.2243,0.2251,0.2308,0.2323,0.2164,0.2164,0.2163,0,0,0.1577,0.1614,0.1633,0.1696,0.1739,0.1784,0.1802,0.1872,0.1919,0.1928,0.2009,0.2043,0.2076,0.2145,0.2181,0.2165,0.2289,0.225,0.2256,0.2259,0.2315,0.233,0.2344,0.2167,0.2166,0.2166,0,0,0.1599,0.1638,0.1668,0.1714,0.1789,0.1822,0.1852,0.1919,0.1963,0.2033,0.2056,0.2122,0.2187,0.2225,0.2249,0.233,0.2331,0.2353,0.2408,0.2464,0.2477,0.2489,0.25,0.2512,0.2363,0.2363,0.2363,0,0.1596,0.1644,0.1691,0.1735,0.1779,0.1843,0.1887,0.1939,0.2022,0.206,0.207,0.2188,0.2222,0.2309,0.2345,0.2352,0.2372,0.236,0.2475,0.2487,0.2498,0.2506,0.2519,0.2367,0.2366,0.2366,0.2366,0,0.1641,0.1682,0.1712,0.1779,0.1834,0.189,0.1959,0.2023,0.208,0.2124,0.2227,0.2275,0.2347,0.2377,0.2391,0.2498,0.248,0.2474,0.2443,0.2518,0.2522,0.2534,0.2372,0.2371,0.237,0.2369,0,0,0.1608,0.1714,0.1725,0.1756,0.1862,0.1904,0.1995,0.2081,0.2146,0.2226,0.2311,0.24,0.2438,0.2469,0.2506,0.2566,0.2661,0.2569,0.257,0.2572,0.2768,0.2598,0.2594,0.2687,0.269,0.2692,0.2733,0,0.1622,0.169,0.1755,0.1829,0.1863,0.1953,0.203,0.2121,0.2204,0.2301,0.2375,0.2469,0.247,0.2531,0.2591,0.2656,0.27,0.2649,0.2702,0.2702,0.2537,0.2605,0.2701,0.2742,0.2745,0.2747,0.2748,0,0.1639,0.1678,0.1748,0.184,0.1868,0.1937,0.2069,0.2151,0.2294,0.2362,0.2465,0.2528,0.2649,0.2636,0.2759,0.2734,0.2759,0.2787,0.2789,0.2616,0.2555,0.2657,0.2769,0.2768,0.2766,0.2765,0.2763,0,0.1581,0.1673,0.1728,0.1762,0.1881,0.1947,0.2032,0.2174,0.2259,0.2425,0.2503,0.2622,0.2715,0.2774,0.2836,0.2822,0.2946,0.2922,0.2775,0.2762,0.2873,0.286,0.2992,0.2992,0.2992,0.2991,0.2991,0,0.1559,0.1601,0.171,0.1737,0.1821,0.1923,0.2045,0.2148,0.2307,0.2408,0.2542,0.2628,0.2766,0.2846,0.287,0.2854,0.2968,0.279,0.2771,0.2896,0.2885,0.288,0.2866,0.2993,0.2993,0.2992,0.2992,0,0.1496,0.1568,0.163,0.1749,0.1801,0.187,0.2056,0.2131,0.2297,0.244,0.2504,0.2676,0.2774,0.2856,0.296,0.2883,0.2893,0.2852,0.2968,0.2954,0.2656,0.2646,0.2684,0.2679,0.2674,0.267,0.2667,0,0.1468,0.1494,0.1626,0.1678,0.1747,0.1867,0.195,0.212,0.2205,0.2439,0.2489,0.2652,0.2741,0.2727,0.2832,0.2839,0.281,0.278,0.2723,0.2652,0.2631,0.2627,0.2623,0.266,0.2659,0.2657,0.2656,0,0.1405,0.1474,0.1524,0.1626,0.1718,0.1808,0.194,0.1981,0.2175,0.2336,0.2413,0.2467,0.2566,0.2621,0.2647,0.265,0.2784,0.2731,0.274,0.2686,0.2623,0.2605,0.2607,0.264,0.2643,0.2644,0.2645,0,0.1368,0.1392,0.1478,0.1559,0.1663,0.1718,0.1797,0.1884,0.1979,0.2213,0.2231,0.2391,0.2538,0.2524,0.2552,0.2542,0.2503,0.2412,0.2437,0.2456,0.2365,0.2249,0.2143,0,0,0,0,0,0.1318,0.134,0.1406,0.1481,0.1576,0.164,0.1777,0.1854,0.2022,0.2017,0.2117,0.2191,0.2243,0.2326,0.2269,0.2463,0.2518,0.2387,0.2428,0.2552,0.257,0.2485,0,0,0,0,0,0,0.1293,0.1345,0.1366,0.1394,0.1432,0.1523,0.1597,0.171,0.1716,0.1891,0.1926,0.206,0.214,0.225,0.2229,0.2253,0.2233,0.2486,0.2481,0.2541,0.2558,0.2573,0.2492,0,0,0,0,0]},{"header":{"parameterUnit":"m.s-1","parameterCategory":2,"la1":30.2991,"la2":30.254,"lo1":-89.0895,"lo2":-89.0444,"dy":0.0017,"dx":0.0017,"nx":28,"ny":28,"refTime":"2024-04-29T21:00:00:Z","depth":"4","parameterNumber":3,"parameterNumberName":"V-component_of_CURRENTS"},"data":[0,0,0,0,0,0,0,0,0,0,0,0,0,0,0,0,0,0,0,0,0,0,0,0,0,0,0,0,0,0,0,0,0,0,0,0,0,0,0,0,0,0,0,0,0,0,0,0,0,0,0,0,0,0,0,0,0,0,0.0111,0.0111,0,0.0099,0.0099,0.0098,0.0079,0.0079,0.0078,0.0078,0.0047,0.0046,0.0046,0,0,0,0,0,0,0,0,0,0,0,0,0,0.0088,0.0089,0.0111,0.0111,0.0111,0.0099,0.0099,0.0098,0.0079,0.0079,0.0078,0.0078,0.0047,0.0046,0.0046,0,0,0,0,0,0,0,0,0,0,0,0,0,0.0089,0.0089,0.0111,0.01,0.0099,0.0099,0.0098,0.0098,0.0079,0.0079,0.0078,0.0078,0.0047,0.0046,0.0046,0.0049,0,0,0.0043,0.0043,0,0,0,0,0,0,0,0,0.0089,0.0089,0.0102,0.0101,0.01,0.009,0.0079,0.0081,0.0079,0.0086,0.0078,0.0078,0.006,0.0058,0.0056,0.0048,0.0046,0.0043,0.0042,0.0042,0.0042,0,0,0,0,0,0,0,0.0089,0.009,0.0106,0.0102,0.0101,0.0086,0.0086,0.0079,0.0075,0.0086,0.0084,0.0084,0.0059,0.0057,0.0056,0.0046,0.0043,0.0042,0.0042,0.0041,0.0033,0.0033,0,0,0,0,0,0,0.0094,0.009,0.0106,0.0105,0.0094,0.0087,0.0086,0.0094,0.0076,0.0073,0.0084,0.0083,0.0059,0.0057,0.0054,0.0067,0.0042,0.0041,0.0041,0.0033,0.0033,0.0033,0,0,0,0,0,0,0.0093,0.0096,0.0107,0.0097,0.0098,0.0088,0.0096,0.0094,0.0091,0.0075,0.0071,0.0084,0.0059,0.0056,0.0055,0.0065,0.0041,0.004,0.0032,0.0033,0.0033,0.0086,0,0,0,0,0,0,0.0093,0.0096,0.0106,0.0098,0.0098,0.0112,0.0096,0.0094,0.0092,0.009,0.0074,0.007,0.0058,0.0056,0.0054,0.0064,0.0039,0.0032,0.0033,0.0033,0.0084,0.0088,0.0092,0,0,0,0,0,0.0092,0.0111,0.0107,0.0109,0.0112,0.0112,0.0111,0.0102,0.0093,0.0097,0.0086,0.0071,0.0057,0.0056,0.0053,0.0063,0.0032,0.0033,0.0033,0.0082,0.0088,0.0092,0,0,0,0,0,0,0.011,0.0111,0.0106,0.0125,0.012,0.0109,0.0114,0.0105,0.01,0.0099,0.0079,0.0075,0.0077,0.0062,0.0061,0.0061,0.004,0.004,0.0079,0.0083,0.0087,0.0096,0.0039,0,0,0,0,0,0.0118,0.0133,0.0124,0.0141,0.0138,0.0125,0.0125,0.0118,0.0111,0.0108,0.0097,0.0085,0.0078,0.0075,0.0066,0.0069,0.0033,0.0071,0.0075,0.0079,0.0083,0.0023,0.0022,0.0036,0.0036,0.0036,0,0,0.0127,0.0134,0.014,0.0146,0.014,0.0151,0.0124,0.0127,0.0141,0.0106,0.0121,0.01,0.0082,0.0086,0.0085,0.0075,0.0058,0.0079,0.0083,0.0086,0.0024,0.0022,0.0021,0.0036,0.0036,0.0036,0,0,0.0159,0.0159,0.0179,0.0181,0.018,0.0172,0.0174,0.0164,0.0162,0.0169,0.0148,0.0132,0.0127,0.0112,0.0105,0.0124,0.0081,0.0122,0.0151,0.0093,0.0091,0.0089,0.0051,0.0045,0.0124,0.0124,0.0124,0,0.0174,0.0201,0.0184,0.0206,0.0215,0.0185,0.0208,0.0203,0.0197,0.0197,0.0181,0.0156,0.0139,0.0137,0.0145,0.0134,0.0098,0.0137,0.0098,0.0095,0.0092,0.0053,0.0046,0.0126,0.0126,0.0126,0.0125,0,0.0217,0.0241,0.0253,0.0272,0.0276,0.0292,0.0281,0.0282,0.027,0.0259,0.0249,0.0215,0.0197,0.0188,0.0176,0.0154,0.0136,0.0109,0.0086,0.0094,0.0053,0.0044,0.013,0.0129,0.0128,0.0128,0,0,0.0253,0.028,0.0285,0.0308,0.0315,0.0324,0.0342,0.0346,0.0355,0.0329,0.0331,0.0305,0.0269,0.0257,0.0226,0.0178,0.013,0.0142,0.0138,0.0107,0.0013,0.0018,0.0009,0.0092,0.0091,0.009,-0.0003,0,0.0296,0.0349,0.0351,0.0401,0.0426,0.041,0.0431,0.0428,0.0411,0.0403,0.0351,0.0341,0.0301,0.0288,0.0234,0.016,0.0109,0.0159,0.0008,0.0005,0.0009,-0.0001,0.0086,-0.001,-0.0012,-0.0014,-0.0015,0,0.034,0.0375,0.043,0.0471,0.0478,0.0501,0.0517,0.0535,0.051,0.0493,0.0455,0.0409,0.0356,0.0308,0.0174,0.0207,0.0118,0.0049,0.0042,0.0023,-0.0006,-0.0023,-0.0031,-0.0029,-0.0028,-0.0027,-0.0026,0,0.0372,0.043,0.0478,0.0494,0.0531,0.0552,0.0569,0.0561,0.0578,0.0547,0.0539,0.0459,0.0422,0.0296,0.0165,0.0163,0.0005,-0.0022,-0.0103,-0.0104,-0.0104,-0.0101,-0.0134,-0.0133,-0.0133,-0.0133,-0.0133,0,0.0416,0.0457,0.05,0.0528,0.0591,0.0597,0.0643,0.0644,0.0641,0.0659,0.0588,0.0569,0.0413,0.0309,0.0177,0.0021,0.0008,-0.0099,-0.0132,-0.0077,-0.007,-0.0109,-0.0105,-0.0136,-0.0136,-0.0135,-0.0134,0,0.0439,0.0466,0.053,0.0584,0.0609,0.0652,0.0703,0.0724,0.072,0.0736,0.073,0.0646,0.0516,0.0355,0.0155,0.0047,-0.011,-0.0167,-0.0077,-0.0104,-0.0183,-0.0175,-0.0268,-0.0269,-0.0269,-0.027,-0.027,0,0.0451,0.0488,0.0571,0.0609,0.0638,0.0702,0.074,0.0765,0.0785,0.0781,0.0785,0.0683,0.0605,0.0341,0.0163,-0.0087,-0.0128,-0.0209,-0.0214,-0.0176,-0.0199,-0.019,-0.0182,-0.0271,-0.0271,-0.0272,-0.0272,0,0.0479,0.0508,0.0556,0.0636,0.0692,0.0761,0.0816,0.084,0.0864,0.0865,0.0828,0.0701,0.0556,0.0352,0.0162,-0.0021,-0.0156,-0.0216,-0.0217,-0.0222,-0.0181,-0.0201,-0.0192,-0.0274,-0.0273,-0.0273,-0.0273,0,0.0494,0.0525,0.0581,0.0653,0.0728,0.0791,0.0827,0.0852,0.0882,0.0878,0.0866,0.0719,0.0639,0.0385,0.0208,0.0034,-0.002,-0.0087,-0.0096,-0.0096,-0.002,0.0059,0.0011,0,0,0,0,0,0.0503,0.0528,0.0588,0.0662,0.0735,0.0782,0.0859,0.0884,0.0916,0.0899,0.0886,0.0755,0.051,0.0408,0.0234,0.0173,-0.0065,-0.0039,-0.015,-0.0285,-0.0283,-0.0223,0,0,0,0,0,0,0.0503,0.0554,0.0579,0.0656,0.0704,0.0786,0.084,0.0867,0.0858,0.0869,0.0747,0.0699,0.0462,0.0607,0.0226,0.0174,0.0077,-0.0148,-0.0152,-0.0286,-0.0284,-0.0282,-0.0221,0,0,0,0,0]}]]